When you browse on this site, cookies collect data to enhance your experience and personalize the content and advertising you see.
Visit our Privacy Policy to learn more. By continuing to use the site, you agree to this use of cookies and data.
  • In Hungary
  • List of Countries
  • For 7 days
  • Water Temperature
  • Satellite Maps
  • Weather Map
  • News
  • Weather Widgets
  • user-avatar
    Login

    Hourly Weather Mińsk Mazowiecki

    Today, 19 February, Tuesday

    Time Temperature Precipitation Wind Pressure Humidity
    00:00 +2°C° 0 mm 3 mps 750 mmHg 87%
    01:00 +2°C° 0 mm 3 mps 750 mmHg 86%
    02:00 +2°C° 0 mm 3 mps 750 mmHg 85%
    03:00 +1°C° 0 mm 3 mps 749 mmHg 85%
    04:00 +1°C° 0 mm 3 mps 749 mmHg 85%
    05:00 +1°C° 0 mm 3 mps 749 mmHg 85%
    06:00 +1°C° 0 mm 3 mps 748 mmHg 85%
    07:00 0°C° 0 mm 3 mps 748 mmHg 85%
    08:00 +1°C° 0 mm 4 mps 748 mmHg 78%
    09:00 +3°C° 0 mm 4 mps 748 mmHg 71%
    10:00 +5°C° 0 mm 5 mps 747 mmHg 64%
    11:00 +6°C° 0 mm 5 mps 747 mmHg 60%
    12:00 +7°C° 0 mm 5 mps 747 mmHg 56%
    13:00 +9°C° 0 mm 5 mps 746 mmHg 52%
    14:00 +8°C° 0 mm 5 mps 746 mmHg 54%
    15:00 +8°C° 0 mm 4 mps 746 mmHg 56%
    16:00 +8°C° 0 mm 4 mps 745 mmHg 58%
    17:00 +7°C° 0 mm 4 mps 745 mmHg 61%
    18:00 +6°C° 0 mm 4 mps 745 mmHg 65%
    19:00 +5°C° 0 mm 4 mps 745 mmHg 69%
    20:00 +5°C° 0.2 mm 4 mps 745 mmHg 74%
    21:00 +5°C° 0.2 mm 5 mps 745 mmHg 80%
    22:00 +5°C° 0.2 mm 5 mps 745 mmHg 86%
    23:00 +3°C° 0.1 mm 5 mps 746 mmHg 87%

    Tomorrow, 20 February, Wednesday

    Time Temperature Precipitation Wind Pressure Humidity
    00:00 +4°C° 0.1 mm 4 mps 746 mmHg 89%
    01:00 +3°C° 0.1 mm 4 mps 746 mmHg 91%
    02:00 +3°C° 0 mm 4 mps 746 mmHg 90%
    03:00 +2°C° 0 mm 5 mps 746 mmHg 88%
    04:00 +2°C° 0 mm 5 mps 746 mmHg 87%
    05:00 +2°C° 0 mm 6 mps 746 mmHg 87%
    06:00 +2°C° 0 mm 6 mps 747 mmHg 87%
    07:00 +2°C° 0 mm 6 mps 747 mmHg 87%
    08:00 +2°C° 0.1 mm 6 mps 747 mmHg 81%
    09:00 +3°C° 0.1 mm 7 mps 748 mmHg 75%
    10:00 +3°C° 0.1 mm 7 mps 748 mmHg 69%
    11:00 +4°C° 0.1 mm 8 mps 748 mmHg 66%
    12:00 +4°C° 0.1 mm 8 mps 748 mmHg 63%
    13:00 +4°C° 0.1 mm 8 mps 748 mmHg 61%
    14:00 +4°C° 0 mm 7 mps 749 mmHg 62%
    15:00 +4°C° 0 mm 7 mps 749 mmHg 63%
    16:00 +4°C° 0 mm 6 mps 749 mmHg 65%
    17:00 +3°C° 0 mm 6 mps 749 mmHg 67%
    18:00 +3°C° 0 mm 6 mps 750 mmHg 69%
    19:00 +3°C° 0 mm 5 mps 750 mmHg 71%
    20:00 +3°C° 0 mm 5 mps 750 mmHg 73%
    21:00 +2°C° 0 mm 5 mps 750 mmHg 76%
    22:00 +3°C° 0 mm 4 mps 751 mmHg 78%
    23:00 +3°C° 0 mm 4 mps 751 mmHg 81%

    Day after tomorrow, 21 February, Thursday

    Time Temperature Precipitation Wind Pressure Humidity
    00:00 +3°C° 0 mm 4 mps 751 mmHg 84%
    01:00 +3°C° 0 mm 4 mps 751 mmHg 87%
    02:00 +3°C° 0.1 mm 3 mps 751 mmHg 89%
    03:00 +3°C° 0.1 mm 3 mps 751 mmHg 92%
    04:00 +3°C° 0.1 mm 3 mps 751 mmHg 94%
    05:00 +3°C° 0.3 mm 3 mps 750 mmHg 94%
    06:00 +3°C° 0.3 mm 4 mps 750 mmHg 93%
    07:00 +3°C° 0.3 mm 4 mps 750 mmHg 93%
    08:00 +3°C° 0.4 mm 4 mps 750 mmHg 92%
    09:00 +3°C° 0.4 mm 4 mps 750 mmHg 90%
    10:00 +3°C° 0.4 mm 5 mps 750 mmHg 89%
    11:00 +3°C° 0.3 mm 5 mps 750 mmHg 89%
    12:00 +3°C° 0.3 mm 5 mps 750 mmHg 90%
    13:00 +3°C° 0.3 mm 5 mps 749 mmHg 90%
    14:00 +3°C° 0.5 mm 5 mps 749 mmHg 91%
    15:00 +3°C° 0.5 mm 5 mps 749 mmHg 92%
    16:00 +3°C° 0.5 mm 5 mps 749 mmHg 93%
    17:00 +3°C° 0.3 mm 5 mps 749 mmHg 93%
    18:00 +5°C° 0.3 mm 5 mps 750 mmHg 93%
    19:00 +5°C° 0.3 mm 4 mps 750 mmHg 94%
    20:00 +3°C° 0.4 mm 5 mps 750 mmHg 93%
    21:00 +2°C° 0.4 mm 5 mps 751 mmHg 92%
    22:00 +2°C° 0.4 mm 5 mps 752 mmHg 92%
    23:00 0°C° 0.2 mm 5 mps 752 mmHg 88%

    22 February, Friday

    Time Temperature Precipitation Wind Pressure Humidity
    00:00 -1°C° 0.2 mm 5 mps 753 mmHg 84%
    01:00 -2°C° 0.2 mm 5 mps 754 mmHg 80%
    02:00 -4°C° 0 mm 5 mps 755 mmHg 76%
    03:00 -4°C° 0 mm 5 mps 756 mmHg 72%
    04:00 -5°C° 0 mm 5 mps 757 mmHg 68%
    05:00 -5°C° 0 mm 5 mps 758 mmHg 68%
    06:00 -5°C° 0 mm 5 mps 759 mmHg 67%
    07:00 -6°C° 0 mm 5 mps 760 mmHg 66%
    08:00 -5°C° 0 mm 5 mps 761 mmHg 62%
    09:00 -5°C° 0 mm 5 mps 762 mmHg 57%
    10:00 -4°C° 0 mm 5 mps 763 mmHg 53%
    11:00 -4°C° 0 mm 5 mps 763 mmHg 50%
    12:00 -4°C° 0 mm 5 mps 764 mmHg 48%
    13:00 -2°C° 0 mm 5 mps 764 mmHg 46%
    14:00 -3°C° 0 mm 4 mps 765 mmHg 45%
    15:00 -3°C° 0 mm 4 mps 765 mmHg 45%
    16:00 -3°C° 0 mm 4 mps 765 mmHg 45%
    17:00 -2°C° 0 mm 3 mps 766 mmHg 47%
    18:00 -4°C° 0 mm 3 mps 767 mmHg 50%
    19:00 -3°C° 0 mm 2 mps 767 mmHg 52%
    20:00 -3°C° 0 mm 2 mps 768 mmHg 51%
    21:00 -2°C° 0 mm 1 mps 768 mmHg 50%
    22:00 -2°C° 0 mm 1 mps 768 mmHg 49%
    23:00 -2°C° 0 mm 1 mps 768 mmHg 49%

    23 February, Saturday

    Time Temperature Precipitation Wind Pressure Humidity
    00:00 -3°C° 0 mm 0 mps 768 mmHg 48%
    01:00 -3°C° 0 mm 0 mps 768 mmHg 47%
    02:00 -2°C° 0 mm 1 mps 768 mmHg 47%
    03:00 -2°C° 0 mm 1 mps 767 mmHg 47%
    04:00 -4°C° 0 mm 2 mps 767 mmHg 47%
    05:00 -4°C° 0 mm 2 mps 767 mmHg 46%
    06:00 -3°C° 0 mm 2 mps 767 mmHg 44%
    07:00 -4°C° 0 mm 3 mps 766 mmHg 43%
    08:00 -4°C° 0 mm 3 mps 766 mmHg 42%
    09:00 -3°C° 0 mm 4 mps 766 mmHg 41%
    10:00 -3°C° 0 mm 4 mps 765 mmHg 40%
    11:00 -2°C° 0 mm 4 mps 765 mmHg 39%
    12:00 -2°C° 0 mm 4 mps 764 mmHg 39%
    13:00 -1°C° 0 mm 5 mps 763 mmHg 38%
    14:00 -1°C° 0 mm 4 mps 763 mmHg 41%
    15:00 -1°C° 0 mm 4 mps 762 mmHg 44%
    16:00 -1°C° 0 mm 4 mps 761 mmHg 47%
    17:00 0°C° 0 mm 3 mps 761 mmHg 52%
    18:00 0°C° 0 mm 3 mps 761 mmHg 57%
    19:00 +1°C° 0 mm 2 mps 761 mmHg 62%
    20:00 -1°C° 0 mm 2 mps 761 mmHg 69%
    21:00 -1°C° 0 mm 2 mps 761 mmHg 75%
    22:00 -1°C° 0 mm 2 mps 761 mmHg 82%
    23:00 -1°C° 0 mm 2 mps 761 mmHg 87%

    24 February, Sunday

    Time Temperature Precipitation Wind Pressure Humidity
    00:00 +1°C° 0 mm 1 mps 761 mmHg 92%
    01:00 +1°C° 0 mm 1 mps 761 mmHg 96%
    02:00 +1°C° 0 mm 1 mps 761 mmHg 97%
    03:00 +1°C° 0 mm 1 mps 761 mmHg 97%
    04:00 +2°C° 0 mm 1 mps 761 mmHg 98%
    05:00 +1°C° 0 mm 2 mps 761 mmHg 98%
    06:00 +1°C° 0 mm 2 mps 761 mmHg 98%
    07:00 +1°C° 0 mm 2 mps 760 mmHg 98%
    08:00 +2°C° 0 mm 2 mps 760 mmHg 97%
    09:00 +1°C° 0 mm 3 mps 760 mmHg 96%
    10:00 +2°C° 0 mm 3 mps 760 mmHg 95%
    11:00 +3°C° 0 mm 3 mps 760 mmHg 91%
    12:00 +4°C° 0 mm 4 mps 759 mmHg 86%
    13:00 +5°C° 0 mm 4 mps 759 mmHg 81%
    14:00 +5°C° 0 mm 4 mps 758 mmHg 82%
    15:00 +5°C° 0 mm 4 mps 757 mmHg 83%
    16:00 +5°C° 0 mm 3 mps 757 mmHg 83%
    17:00 +4°C° 0 mm 3 mps 756 mmHg 85%
    18:00 +3°C° 0 mm 3 mps 756 mmHg 86%
    19:00 +2°C° 0 mm 3 mps 756 mmHg 88%
    20:00 +1°C° 0 mm 4 mps 755 mmHg 88%
    21:00 +1°C° 0 mm 4 mps 755 mmHg 88%
    22:00 +1°C° 0 mm 4 mps 754 mmHg 88%
    23:00 +1°C° 0 mm 4 mps 754 mmHg 89%
    Show more